Wetterdaten: aktuell Dienstag, 15.10.2019 23:30
Datum Zeit Temp. I. Temp. A. Temp. 2 Feuchte I. Feuchte A. Luftdruck Regen Wind Richtung Richtung Taupunkt Windben
15.10.2019 23:30 21,8 C 13,3 C 14,5 C 68 % 54 % 1012,3 hPa 0,0 l/m 0,0 km/h N 360 11,9 C 0,0 km/h
15.10.2019 23:25 21,8 C 13,3 C 14,5 C 68 % 54 % 1012,3 hPa 0,0 l/m 0,0 km/h N 360 11,9 C 0,0 km/h
15.10.2019 23:20 21,8 C 13,3 C 14,5 C 68 % 54 % 1012,2 hPa 0,0 l/m 0,0 km/h N 360 11,9 C 0,0 km/h
15.10.2019 23:15 21,8 C 13,3 C 14,5 C 68 % 54 % 1012,2 hPa 0,0 l/m 0,0 km/h N 360 11,9 C 0,0 km/h
15.10.2019 23:10 21,8 C 13,4 C 14,5 C 69 % 54 % 1012,2 hPa 0,2 l/m 0,0 km/h N 360 12,0 C 0,0 km/h
15.10.2019 23:05 21,8 C 13,5 C 14,5 C 69 % 54 % 1012,2 hPa 0,9 l/m 0,0 km/h N 360 12,1 C 0,0 km/h
15.10.2019 23:00 21,8 C 13,4 C 14,5 C 69 % 54 % 1012,0 hPa 0,0 l/m 0,0 km/h N 360 12,0 C 0,0 km/h
15.10.2019 22:55 21,8 C 13,4 C 14,5 C 69 % 54 % 1012,0 hPa 0,2 l/m 0,0 km/h N 360 12,0 C 0,0 km/h
15.10.2019 22:50 21,8 C 13,5 C 14,5 C 69 % 54 % 1012,0 hPa 0,0 l/m 0,0 km/h N 360 12,1 C 0,0 km/h
15.10.2019 22:45 21,7 C 13,5 C 14,5 C 69 % 54 % 1012,0 hPa 0,2 l/m 0,0 km/h N 360 12,1 C 0,0 km/h
15.10.2019 22:40 21,7 C 13,5 C 14,5 C 68 % 54 % 1011,8 hPa 0,0 l/m 0,0 km/h N 360 12,1 C 0,0 km/h
15.10.2019 22:35 21,7 C 13,5 C 14,5 C 68 % 54 % 1011,8 hPa 0,2 l/m 0,0 km/h N 360 12,1 C 0,0 km/h
15.10.2019 22:30 21,6 C 13,5 C 14,5 C 69 % 54 % 1011,8 hPa 0,0 l/m 0,0 km/h N 360 12,1 C 0,0 km/h
15.10.2019 22:25 21,6 C 13,5 C 14,5 C 69 % 54 % 1011,8 hPa 0,0 l/m 0,0 km/h N 360 12,1 C 0,0 km/h
15.10.2019 22:20 21,6 C 13,5 C 14,5 C 69 % 54 % 1011,4 hPa 0,0 l/m 0,0 km/h N 360 12,1 C 0,0 km/h
15.10.2019 22:15 21,5 C 13,5 C 14,5 C 69 % 54 % 1011,4 hPa 0,0 l/m 0,0 km/h N 360 12,1 C 0,0 km/h
15.10.2019 22:10 21,4 C 13,6 C 14,5 C 69 % 54 % 1011,4 hPa 0,2 l/m 0,0 km/h N 360 12,2 C 0,0 km/h
15.10.2019 22:05 21,4 C 13,6 C 14,5 C 69 % 54 % 1011,4 hPa 0,0 l/m 0,0 km/h N 360 12,2 C 0,0 km/h
15.10.2019 22:00 21,4 C 13,6 C 14,5 C 69 % 54 % 1010,6 hPa 0,0 l/m 0,0 km/h N 360 12,2 C 0,0 km/h
15.10.2019 21:55 21,2 C 13,6 C 14,5 C 69 % 54 % 1010,6 hPa 0,0 l/m 0,0 km/h N 360 12,2 C 0,0 km/h
15.10.2019 21:50 21,2 C 13,6 C 14,5 C 69 % 54 % 1010,6 hPa 0,2 l/m 0,0 km/h N 360 12,2 C 0,0 km/h
15.10.2019 21:45 21,2 C 13,6 C 14,5 C 69 % 54 % 1010,6 hPa 0,0 l/m 0,0 km/h N 360 12,2 C 0,0 km/h
15.10.2019 21:40 21,2 C 13,7 C 14,5 C 68 % 55 % 1011,1 hPa 0,2 l/m 0,0 km/h N 360 12,3 C 0,0 km/h
15.10.2019 21:35 21,2 C 13,7 C 14,5 C 68 % 55 % 1011,1 hPa 0,2 l/m 0,0 km/h N 360 12,3 C 0,0 km/h
15.10.2019 21:30 21,2 C 13,7 C 14,5 C 68 % 55 % 1011,1 hPa 0,2 l/m 0,0 km/h N 360 12,3 C 0,0 km/h
15.10.2019 21:25 21,2 C 13,6 C 14,5 C 68 % 54 % 1011,1 hPa 0,2 l/m 0,0 km/h N 360 12,2 C 0,0 km/h
15.10.2019 21:20 21,2 C 13,7 C 14,5 C 68 % 55 % 1010,9 hPa 0,2 l/m 0,0 km/h N 360 12,3 C 0,0 km/h
15.10.2019 21:15 21,2 C 13,6 C 14,5 C 68 % 54 % 1010,9 hPa 0,0 l/m 0,0 km/h N 360 12,2 C 0,0 km/h
15.10.2019 21:10 21,2 C 13,6 C 14,5 C 68 % 54 % 1010,9 hPa 0,2 l/m 0,0 km/h N 360 12,2 C 0,0 km/h
15.10.2019 21:05 21,2 C 13,6 C 14,5 C 68 % 54 % 1010,9 hPa 0,2 l/m 0,0 km/h N 360 12,2 C 0,0 km/h
15.10.2019 21:00 21,2 C 13,6 C 14,5 C 68 % 54 % 1010,9 hPa 0,2 l/m 0,0 km/h N 360 12,2 C 0,0 km/h
15.10.2019 20:55 21,2 C 13,7 C 14,5 C 68 % 55 % 1010,9 hPa 0,3 l/m 0,0 km/h N 360 12,3 C 0,0 km/h
15.10.2019 20:50 21,2 C 13,6 C 14,5 C 68 % 54 % 1010,9 hPa 0,3 l/m 0,0 km/h N 360 12,2 C 0,0 km/h
15.10.2019 20:45 21,2 C 13,7 C 14,5 C 68 % 55 % 1010,9 hPa 0,7 l/m 0,0 km/h N 360 12,3 C 0,0 km/h
15.10.2019 20:40 21,1 C 13,7 C 14,5 C 68 % 55 % 1010,6 hPa 0,2 l/m 0,0 km/h N 360 12,3 C 0,0 km/h
15.10.2019 20:35 21,2 C 13,7 C 14,5 C 68 % 55 % 1010,6 hPa 0,2 l/m 0,0 km/h N 360 12,3 C 0,0 km/h
15.10.2019 20:30 21,2 C 13,7 C 14,5 C 68 % 55 % 1010,6 hPa 0,2 l/m 0,0 km/h N 360 12,3 C 0,0 km/h
15.10.2019 20:25 21,2 C 13,7 C 14,5 C 68 % 55 % 1010,6 hPa 0,3 l/m 0,0 km/h N 360 12,3 C 0,0 km/h
15.10.2019 20:20 21,2 C 13,7 C 14,5 C 68 % 55 % 1010,4 hPa 0,0 l/m 0,0 km/h N 360 12,3 C 0,0 km/h
15.10.2019 20:15 21,2 C 13,8 C 14,5 C 68 % 55 % 1010,4 hPa 0,2 l/m 0,0 km/h N 360 12,4 C 0,0 km/h
15.10.2019 20:10 21,1 C 13,9 C 14,5 C 68 % 55 % 1010,4 hPa 0,2 l/m 0,0 km/h N 360 12,5 C 0,0 km/h
15.10.2019 20:05 21,1 C 13,9 C 14,5 C 68 % 55 % 1010,4 hPa 0,3 l/m 0,0 km/h N 360 12,5 C 0,0 km/h
15.10.2019 20:00 21,1 C 13,9 C 14,5 C 68 % 55 % 1010,0 hPa 0,2 l/m 0,0 km/h N 360 12,5 C 0,0 km/h
15.10.2019 19:55 21,1 C 14,0 C 14,5 C 68 % 55 % 1010,0 hPa 0,3 l/m 0,0 km/h N 360 12,4 C 0,0 km/h
15.10.2019 19:50 21,1 C 14,1 C 14,5 C 68 % 55 % 1010,0 hPa 0,3 l/m 0,0 km/h N 360 12,5 C 0,0 km/h
15.10.2019 19:45 21,1 C 14,1 C 14,5 C 68 % 55 % 1010,0 hPa 0,3 l/m 0,0 km/h N 360 12,5 C 0,0 km/h
15.10.2019 19:40 21,1 C 14,3 C 14,5 C 68 % 56 % 1009,9 hPa 0,2 l/m 0,0 km/h N 360 12,5 C 0,0 km/h
15.10.2019 19:35 21,1 C 14,2 C 14,5 C 68 % 56 % 1009,9 hPa 0,2 l/m 0,0 km/h N 360 12,2 C 0,0 km/h
15.10.2019 19:30 21,1 C 14,4 C 14,5 C 68 % 56 % 1009,9 hPa 0,2 l/m 0,0 km/h N 360 12,3 C 0,0 km/h
15.10.2019 19:25 21,1 C 14,5 C 14,5 C 68 % 56 % 1009,9 hPa 0,2 l/m 0,0 km/h N 360 12,4 C 0,0 km/h
15.10.2019 19:20 21,1 C 14,7 C 14,5 C 68 % 56 % 1009,4 hPa 0,2 l/m 0,0 km/h N 360 12,4 C 0,0 km/h
15.10.2019 19:15 21,1 C 14,7 C 14,5 C 68 % 56 % 1009,4 hPa 0,2 l/m 0,0 km/h N 360 12,4 C 0,0 km/h
15.10.2019 19:10 21,1 C 14,8 C 14,5 C 68 % 57 % 1009,4 hPa 0,0 l/m 0,0 km/h N 360 12,3 C 0,0 km/h
15.10.2019 19:05 21,1 C 14,9 C 15,3 C 68 % 57 % 1009,4 hPa 0,2 l/m 0,0 km/h N 360 12,2 C 0,0 km/h
15.10.2019 19:00 21,1 C 15,1 C 15,3 C 68 % 57 % 1008,9 hPa 0,0 l/m 0,0 km/h N 360 12,4 C 0,0 km/h
15.10.2019 18:55 21,1 C 15,2 C 15,3 C 68 % 57 % 1008,9 hPa 0,0 l/m 0,0 km/h N 360 12,5 C 0,0 km/h
15.10.2019 18:50 21,1 C 15,3 C 15,3 C 68 % 57 % 1008,9 hPa 0,0 l/m 0,0 km/h N 360 12,4 C 0,0 km/h
15.10.2019 18:45 21,1 C 15,3 C 15,3 C 68 % 57 % 1008,9 hPa 0,0 l/m 0,0 km/h N 360 12,4 C 0,0 km/h
15.10.2019 18:40 21,1 C 15,5 C 15,3 C 67 % 58 % 1008,2 hPa 0,0 l/m 0,0 km/h N 360 12,4 C 0,0 km/h
15.10.2019 18:35 21,1 C 15,7 C 15,3 C 68 % 58 % 1008,2 hPa 0,2 l/m 0,0 km/h N 360 12,4 C 0,0 km/h
15.10.2019 18:30 21,1 C 15,7 C 15,3 C 68 % 58 % 1008,2 hPa 0,0 l/m 0,0 km/h N 360 12,4 C 0,0 km/h
15.10.2019 18:25 21,1 C 15,9 C 15,3 C 68 % 58 % 1008,2 hPa 0,0 l/m 0,0 km/h N 360 12,5 C 0,0 km/h
15.10.2019 18:20 21,1 C 16,0 C 15,3 C 68 % 59 % 1008,3 hPa 0,0 l/m 0,0 km/h N 360 12,4 C 0,0 km/h
15.10.2019 18:15 21,1 C 16,1 C 15,3 C 68 % 59 % 1008,3 hPa 0,0 l/m 0,0 km/h N 360 12,5 C 0,0 km/h
15.10.2019 18:10 21,1 C 16,3 C 15,3 C 68 % 59 % 1008,3 hPa 0,0 l/m 0,0 km/h N 360 12,3 C 0,0 km/h
15.10.2019 18:05 21,1 C 16,4 C 15,3 C 68 % 59 % 1008,3 hPa 0,0 l/m 0,0 km/h N 360 12,4 C 0,0 km/h
15.10.2019 18:00 21,0 C 16,4 C 12,1 C 68 % 59 % 1008,1 hPa 0,0 l/m 0,0 km/h N 360 12,2 C 0,0 km/h
15.10.2019 17:55 21,0 C 16,5 C 12,1 C 68 % 59 % 1008,1 hPa 0,0 l/m 0,0 km/h N 360 12,1 C 0,0 km/h
15.10.2019 17:50 21,0 C 16,6 C 12,1 C 67 % 60 % 1008,1 hPa 0,0 l/m 0,0 km/h N 360 12,1 C 0,0 km/h
15.10.2019 17:45 21,0 C 16,7 C 12,1 C 68 % 60 % 1008,1 hPa 0,0 l/m 0,0 km/h N 360 12,2 C 0,0 km/h
15.10.2019 17:40 21,0 C 16,7 C 12,1 C 68 % 60 % 1008,1 hPa 0,0 l/m 0,0 km/h N 360 12,2 C 0,0 km/h
15.10.2019 17:35 21,0 C 16,7 C 12,1 C 67 % 60 % 1008,1 hPa 0,0 l/m 0,0 km/h N 360 12,2 C 0,0 km/h
15.10.2019 17:30 21,0 C 16,8 C 12,1 C 67 % 60 % 1008,1 hPa 0,0 l/m 0,0 km/h N 360 12,1 C 0,0 km/h
15.10.2019 17:25 21,0 C 16,8 C 12,1 C 68 % 60 % 1008,1 hPa 0,0 l/m 0,0 km/h N 360 12,1 C 0,0 km/h
15.10.2019 17:20 21,0 C 16,9 C 12,1 C 68 % 60 % 1007,4 hPa 0,0 l/m 0,0 km/h N 360 12,2 C 0,0 km/h
15.10.2019 17:15 21,0 C 16,9 C 12,1 C 68 % 60 % 1007,4 hPa 0,0 l/m 0,0 km/h N 360 12,2 C 0,0 km/h
15.10.2019 17:10 21,0 C 16,9 C 12,1 C 68 % 60 % 1007,4 hPa 0,0 l/m 0,0 km/h N 360 12,2 C 0,0 km/h
15.10.2019 17:05 21,1 C 17,1 C 12,1 C 68 % 61 % 1007,4 hPa 0,0 l/m 0,0 km/h N 360 12,6 C 0,0 km/h
15.10.2019 17:00 21,0 C 17,1 C 12,1 C 67 % 61 % 1007,7 hPa 0,0 l/m 0,0 km/h N 360 12,4 C 0,0 km/h
15.10.2019 16:55 21,1 C 17,2 C 12,1 C 67 % 61 % 1007,7 hPa 0,0 l/m 0,0 km/h N 360 12,5 C 0,0 km/h
15.10.2019 16:50 21,0 C 17,2 C 12,1 C 68 % 61 % 1007,7 hPa 0,0 l/m 0,0 km/h N 360 12,3 C 0,0 km/h
15.10.2019 16:45 21,1 C 17,3 C 12,1 C 68 % 61 % 1007,7 hPa 0,0 l/m 0,0 km/h N 360 12,4 C 0,0 km/h
15.10.2019 16:40 21,1 C 17,5 C 12,1 C 68 % 61 % 1007,9 hPa 0,0 l/m 0,0 km/h N 360 12,4 C 0,0 km/h
15.10.2019 16:35 21,0 C 17,5 C 12,1 C 68 % 61 % 1007,9 hPa 0,0 l/m 0,0 km/h N 360 12,2 C 0,0 km/h
15.10.2019 16:30 21,0 C 17,6 C 12,1 C 68 % 61 % 1007,9 hPa 0,0 l/m 0,0 km/h N 360 12,5 C 0,0 km/h
15.10.2019 16:25 21,0 C 17,7 C 12,1 C 67 % 62 % 1007,9 hPa 0,0 l/m 0,0 km/h N 360 12,6 C 0,0 km/h
15.10.2019 16:20 21,0 C 17,8 C 12,1 C 67 % 62 % 1007,5 hPa 0,0 l/m 0,0 km/h N 360 12,7 C 0,0 km/h
15.10.2019 16:15 21,0 C 17,9 C 12,1 C 67 % 62 % 1007,5 hPa 0,0 l/m 0,0 km/h N 360 13,0 C 0,0 km/h
15.10.2019 16:10 21,0 C 17,9 C 12,1 C 67 % 62 % 1007,5 hPa 0,0 l/m 0,0 km/h N 360 13,0 C 0,0 km/h
15.10.2019 16:05 21,0 C 17,9 C 12,1 C 67 % 62 % 1007,5 hPa 0,0 l/m 0,0 km/h N 360 13,0 C 0,0 km/h
15.10.2019 16:00 21,0 C 18,1 C 12,1 C 67 % 62 % 1007,4 hPa 0,0 l/m 0,0 km/h N 360 13,2 C 0,0 km/h
15.10.2019 15:55 21,0 C 18,1 C 12,1 C 67 % 62 % 1007,4 hPa 0,0 l/m 0,0 km/h N 360 13,2 C 0,0 km/h
15.10.2019 15:50 21,0 C 18,0 C 12,1 C 67 % 62 % 1007,4 hPa 0,0 l/m 0,0 km/h N 360 13,1 C 0,0 km/h
15.10.2019 15:45 21,0 C 18,0 C 12,1 C 67 % 62 % 1007,4 hPa 0,0 l/m 0,0 km/h N 360 13,3 C 0,0 km/h
15.10.2019 15:40 21,0 C 18,1 C 12,1 C 67 % 62 % 1007,5 hPa 0,0 l/m 0,0 km/h N 360 13,4 C 0,0 km/h
15.10.2019 15:35 21,0 C 18,1 C 12,1 C 67 % 62 % 1007,5 hPa 0,0 l/m 0,0 km/h N 360 13,4 C 0,0 km/h
15.10.2019 15:30 21,0 C 18,1 C 12,1 C 67 % 62 % 1007,5 hPa 0,0 l/m 0,0 km/h N 360 13,4 C 0,0 km/h
15.10.2019 15:25 21,0 C 18,3 C 12,1 C 67 % 63 % 1007,5 hPa 0,0 l/m 0,0 km/h N 360 13,6 C 0,0 km/h
15.10.2019 15:20 20,9 C 18,3 C 12,1 C 67 % 63 % 1007,4 hPa 0,0 l/m 0,0 km/h N 360 13,4 C 0,0 km/h
15.10.2019 15:15 21,0 C 18,3 C 12,1 C 67 % 63 % 1007,4 hPa 0,0 l/m 0,0 km/h N 360 13,2 C 0,0 km/h
15.10.2019 15:10 20,9 C 18,4 C 12,1 C 67 % 63 % 1007,4 hPa 0,0 l/m 0,0 km/h N 360 13,3 C 0,0 km/h
15.10.2019 15:05 20,9 C 18,4 C 12,1 C 67 % 63 % 1007,4 hPa 0,0 l/m 0,0 km/h N 360 13,0 C 0,0 km/h
15.10.2019 15:00 20,9 C 18,6 C 12,1 C 67 % 63 % 1007,2 hPa 0,0 l/m 0,0 km/h N 360 13,2 C 0,0 km/h
15.10.2019 14:55 20,9 C 18,7 C 12,1 C 67 % 63 % 1007,2 hPa 0,0 l/m 0,0 km/h N 360 13,3 C 0,0 km/h
15.10.2019 14:50 20,9 C 18,7 C 12,1 C 67 % 63 % 1007,2 hPa 0,0 l/m 0,0 km/h N 360 13,8 C 0,0 km/h
15.10.2019 14:45 20,9 C 18,8 C 12,1 C 67 % 63 % 1007,2 hPa 0,0 l/m 0,0 km/h N 360 13,6 C 0,0 km/h
15.10.2019 14:40 20,9 C 18,9 C 12,1 C 67 % 64 % 1007,1 hPa 0,0 l/m 0,0 km/h N 360 14,2 C 0,0 km/h
15.10.2019 14:35 20,9 C 18,9 C 12,1 C 67 % 64 % 1007,1 hPa 0,0 l/m 0,0 km/h N 360 14,2 C 0,0 km/h
15.10.2019 14:30 20,9 C 19,1 C 12,1 C 67 % 64 % 1007,1 hPa 0,0 l/m 0,0 km/h N 360 14,4 C 0,0 km/h
15.10.2019 14:25 20,9 C 19,1 C 12,1 C 67 % 64 % 1007,1 hPa 0,0 l/m 0,0 km/h N 360 14,4 C 0,0 km/h
15.10.2019 14:20 20,9 C 19,0 C 12,1 C 67 % 64 % 1006,9 hPa 0,0 l/m 0,0 km/h N 360 14,3 C 0,0 km/h
15.10.2019 14:15 20,9 C 19,1 C 12,1 C 67 % 64 % 1006,9 hPa 0,0 l/m 0,0 km/h N 360 14,6 C 0,0 km/h
15.10.2019 14:10 20,8 C 19,2 C 12,1 C 67 % 64 % 1006,9 hPa 0,0 l/m 0,0 km/h N 360 14,7 C 0,0 km/h
15.10.2019 14:05 20,9 C 19,2 C 12,1 C 67 % 64 % 1006,9 hPa 0,0 l/m 0,0 km/h N 360 14,7 C 0,0 km/h
15.10.2019 14:00 20,8 C 19,2 C 12,1 C 67 % 64 % 1007,0 hPa 0,0 l/m 0,0 km/h N 360 14,4 C 0,0 km/h
15.10.2019 13:55 20,8 C 19,3 C 12,1 C 67 % 64 % 1007,0 hPa 0,0 l/m 0,0 km/h N 360 14,5 C 0,0 km/h
15.10.2019 13:50 20,8 C 19,5 C 12,1 C 67 % 65 % 1007,0 hPa 0,0 l/m 0,0 km/h N 360 14,5 C 0,0 km/h
15.10.2019 13:45 20,8 C 19,5 C 12,1 C 67 % 65 % 1007,0 hPa 0,0 l/m 0,0 km/h N 360 14,5 C 0,0 km/h
15.10.2019 13:40 20,8 C 19,5 C 12,1 C 67 % 65 % 1007,1 hPa 0,0 l/m 0,0 km/h N 360 14,5 C 0,0 km/h
15.10.2019 13:35 20,8 C 19,3 C 12,1 C 67 % 64 % 1007,1 hPa 0,0 l/m 0,0 km/h N 360 14,5 C 0,0 km/h
15.10.2019 13:32 20,8 C 19,3 C 12,1 C 67 % 64 % 1007,1 hPa 0,0 l/m 0,0 km/h N 360 14,5 C 0,0 km/h
15.10.2019 13:30 20,8 C 19,3 C 12,1 C 67 % 64 % 1007,1 hPa 0,0 l/m 0,0 km/h N 360 14,5 C 0,0 km/h
15.10.2019 13:25 20,8 C 19,1 C 12,1 C 67 % 64 % 1007,1 hPa 0,0 l/m 0,0 km/h N 360 14,8 C 0,0 km/h
15.10.2019 13:20 20,8 C 19,1 C 12,1 C 67 % 64 % 1007,1 hPa 0,0 l/m 0,0 km/h N 360 15,0 C 0,0 km/h
15.10.2019 13:15 20,8 C 18,8 C 12,1 C 67 % 63 % 1007,1 hPa 0,0 l/m 0,0 km/h N 360 14,9 C 0,0 km/h
15.10.2019 13:10 20,8 C 18,8 C 12,1 C 67 % 63 % 1007,1 hPa 0,0 l/m 0,0 km/h N 360 14,9 C 0,0 km/h
15.10.2019 13:05 20,8 C 18,7 C 12,1 C 67 % 63 % 1007,1 hPa 0,0 l/m 0,0 km/h N 360 14,8 C 0,0 km/h
15.10.2019 13:00 20,8 C 18,7 C 12,1 C 67 % 63 % 1007,1 hPa 0,0 l/m 0,0 km/h N 360 15,0 C 0,0 km/h
15.10.2019 12:55 20,8 C 18,6 C 12,1 C 67 % 63 % 1007,1 hPa 0,0 l/m 0,0 km/h N 360 14,9 C 0,0 km/h
15.10.2019 12:50 20,8 C 18,5 C 12,1 C 67 % 63 % 1007,1 hPa 0,0 l/m 0,0 km/h N 360 14,8 C 0,0 km/h
15.10.2019 12:45 20,8 C 18,4 C 12,1 C 67 % 63 % 1007,1 hPa 0,0 l/m 0,0 km/h N 360 14,7 C 0,0 km/h
15.10.2019 12:40 20,8 C 18,4 C 12,1 C 67 % 63 % 1007,1 hPa 0,0 l/m 0,0 km/h N 360 14,7 C 0,0 km/h
15.10.2019 12:35 20,8 C 18,3 C 12,1 C 67 % 63 % 1007,4 hPa 0,0 l/m 0,0 km/h N 360 14,6 C 0,0 km/h
15.10.2019 12:30 20,8 C 18,3 C 12,1 C 67 % 63 % 1007,4 hPa 0,0 l/m 0,0 km/h N 360 14,6 C 0,0 km/h
15.10.2019 12:25 20,8 C 18,1 C 12,1 C 67 % 62 % 1007,4 hPa 0,0 l/m 0,0 km/h N 360 14,4 C 0,0 km/h
15.10.2019 12:20 20,8 C 18,1 C 12,1 C 67 % 62 % 1007,4 hPa 0,0 l/m 0,0 km/h N 360 14,4 C 0,0 km/h
15.10.2019 12:15 20,8 C 17,9 C 12,1 C 67 % 62 % 1007,2 hPa 0,0 l/m 0,0 km/h N 360 14,2 C 0,0 km/h
15.10.2019 12:10 20,8 C 17,7 C 12,1 C 67 % 62 % 1007,2 hPa 0,0 l/m 0,0 km/h N 360 14,0 C 0,0 km/h
15.10.2019 12:05 20,8 C 17,6 C 12,1 C 67 % 61 % 1007,2 hPa 0,0 l/m 0,0 km/h N 360 13,9 C 0,0 km/h
15.10.2019 12:00 20,8 C 17,4 C 12,1 C 67 % 61 % 1007,2 hPa 0,0 l/m 0,0 km/h N 360 13,7 C 0,0 km/h
15.10.2019 11:55 20,8 C 17,3 C 12,1 C 68 % 61 % 1007,2 hPa 0,0 l/m 0,0 km/h N 360 13,8 C 0,0 km/h
15.10.2019 11:50 20,8 C 17,0 C 12,1 C 68 % 60 % 1007,2 hPa 0,0 l/m 0,0 km/h N 360 13,7 C 0,0 km/h
15.10.2019 11:45 20,8 C 16,8 C 12,1 C 67 % 60 % 1007,2 hPa 0,0 l/m 0,0 km/h N 360 13,7 C 0,0 km/h
15.10.2019 11:40 20,8 C 16,7 C 12,1 C 68 % 60 % 1007,2 hPa 0,0 l/m 0,0 km/h N 360 13,6 C 0,0 km/h
15.10.2019 11:35 20,8 C 16,7 C 12,1 C 68 % 60 % 1007,0 hPa 0,0 l/m 0,0 km/h N 360 13,4 C 0,0 km/h
15.10.2019 11:30 20,8 C 16,5 C 12,1 C 68 % 59 % 1007,0 hPa 0,0 l/m 0,0 km/h N 360 13,4 C 0,0 km/h
15.10.2019 11:25 20,8 C 16,4 C 12,1 C 68 % 59 % 1007,0 hPa 0,0 l/m 0,0 km/h N 360 13,3 C 0,0 km/h
15.10.2019 11:20 20,8 C 16,2 C 12,1 C 68 % 59 % 1007,0 hPa 0,0 l/m 0,0 km/h N 360 12,9 C 0,0 km/h
15.10.2019 11:15 20,8 C 16,0 C 12,1 C 68 % 59 % 1007,1 hPa 0,0 l/m 0,0 km/h N 360 13,1 C 0,0 km/h
15.10.2019 11:10 20,8 C 15,9 C 12,1 C 68 % 58 % 1007,1 hPa 0,0 l/m 0,0 km/h N 360 13,0 C 0,0 km/h
15.10.2019 11:05 20,7 C 15,6 C 12,1 C 68 % 58 % 1007,1 hPa 0,0 l/m 0,0 km/h N 360 12,9 C 0,0 km/h
15.10.2019 11:00 20,7 C 15,5 C 12,1 C 69 % 58 % 1007,1 hPa 0,0 l/m 0,0 km/h N 360 12,8 C 0,0 km/h
15.10.2019 10:55 20,7 C 15,3 C 12,1 C 69 % 57 % 1007,3 hPa 0,0 l/m 0,0 km/h N 360 12,6 C 0,0 km/h
15.10.2019 10:50 20,7 C 15,3 C 12,1 C 68 % 57 % 1007,3 hPa 0,0 l/m 0,0 km/h N 360 12,8 C 0,0 km/h
15.10.2019 10:45 20,6 C 15,1 C 12,1 C 68 % 57 % 1007,3 hPa 0,0 l/m 0,0 km/h N 360 12,8 C 0,0 km/h
15.10.2019 10:40 20,6 C 15,1 C 12,1 C 68 % 57 % 1007,3 hPa 0,0 l/m 0,0 km/h N 360 12,8 C 0,0 km/h
15.10.2019 10:35 20,6 C 14,8 C 12,1 C 67 % 57 % 1007,4 hPa 0,0 l/m 0,0 km/h N 360 12,7 C 0,0 km/h
15.10.2019 10:30 20,6 C 14,7 C 12,1 C 67 % 56 % 1007,4 hPa 0,0 l/m 0,0 km/h N 360 12,6 C 0,0 km/h
15.10.2019 10:25 20,6 C 14,6 C 12,1 C 65 % 56 % 1007,4 hPa 0,0 l/m 0,0 km/h N 360 12,6 C 0,0 km/h
15.10.2019 10:20 20,6 C 14,5 C 12,1 C 65 % 56 % 1007,4 hPa 0,0 l/m 0,0 km/h N 360 12,5 C 0,0 km/h
15.10.2019 10:15 20,6 C 14,3 C 12,1 C 65 % 56 % 1007,4 hPa 0,0 l/m 0,0 km/h N 360 12,3 C 0,0 km/h
15.10.2019 10:10 20,5 C 14,3 C 12,1 C 65 % 56 % 1007,4 hPa 0,0 l/m 0,0 km/h N 360 12,5 C 0,0 km/h
15.10.2019 10:05 20,6 C 14,1 C 12,1 C 65 % 55 % 1007,4 hPa 0,0 l/m 0,0 km/h N 360 12,3 C 0,0 km/h
15.10.2019 10:00 20,5 C 14,0 C 12,1 C 65 % 55 % 1007,4 hPa 0,0 l/m 0,0 km/h N 360 12,2 C 0,0 km/h
15.10.2019 09:55 20,5 C 13,9 C 12,1 C 65 % 55 % 1007,3 hPa 0,0 l/m 0,0 km/h N 360 12,3 C 0,0 km/h
15.10.2019 09:50 20,5 C 13,7 C 12,1 C 65 % 55 % 1007,3 hPa 0,0 l/m 0,0 km/h N 360 12,1 C 0,0 km/h
15.10.2019 09:45 20,5 C 13,7 C 12,1 C 65 % 55 % 1007,3 hPa 0,0 l/m 0,0 km/h N 360 11,9 C 0,0 km/h
15.10.2019 09:40 20,5 C 13,5 C 12,1 C 65 % 54 % 1007,3 hPa 0,0 l/m 0,0 km/h N 360 11,7 C 0,0 km/h
15.10.2019 09:35 20,5 C 13,3 C 12,1 C 65 % 54 % 1007,6 hPa 0,0 l/m 0,0 km/h N 360 11,5 C 0,0 km/h
15.10.2019 09:30 20,5 C 13,2 C 12,1 C 65 % 54 % 1007,6 hPa 0,0 l/m 0,0 km/h N 360 11,6 C 0,0 km/h
15.10.2019 09:25 20,5 C 13,1 C 12,1 C 65 % 54 % 1007,6 hPa 0,0 l/m 0,0 km/h N 360 11,5 C 0,0 km/h
15.10.2019 09:20 20,5 C 13,1 C 12,1 C 65 % 54 % 1007,6 hPa 0,0 l/m 0,0 km/h N 360 11,5 C 0,0 km/h
15.10.2019 09:15 20,5 C 12,9 C 12,1 C 65 % 53 % 1007,6 hPa 0,0 l/m 0,0 km/h N 360 11,3 C 0,0 km/h
15.10.2019 09:10 20,5 C 12,7 C 12,1 C 65 % 53 % 1007,6 hPa 0,0 l/m 0,0 km/h N 360 11,1 C 0,0 km/h
15.10.2019 09:05 20,5 C 12,6 C 12,1 C 65 % 53 % 1007,6 hPa 0,0 l/m 0,0 km/h N 360 11,0 C 0,0 km/h
15.10.2019 09:00 20,5 C 12,5 C 12,1 C 65 % 53 % 1007,6 hPa 0,0 l/m 0,0 km/h N 360 10,9 C 0,0 km/h
15.10.2019 08:55 20,5 C 12,5 C 12,1 C 65 % 53 % 1007,8 hPa 0,0 l/m 0,0 km/h N 360 10,9 C 0,0 km/h
15.10.2019 08:50 20,5 C 12,3 C 12,1 C 65 % 52 % 1007,8 hPa 0,0 l/m 0,0 km/h N 360 10,7 C 0,0 km/h
15.10.2019 08:45 20,5 C 12,3 C 12,1 C 65 % 52 % 1007,8 hPa 0,0 l/m 0,0 km/h N 360 10,7 C 0,0 km/h
15.10.2019 08:40 20,5 C 12,2 C 12,1 C 65 % 52 % 1007,8 hPa 0,0 l/m 0,0 km/h N 360 10,6 C 0,0 km/h
15.10.2019 08:35 20,5 C 12,0 C 12,1 C 65 % 52 % 1007,3 hPa 0,0 l/m 0,0 km/h N 360 10,4 C 0,0 km/h
15.10.2019 08:30 20,5 C 12,0 C 12,1 C 65 % 52 % 1007,3 hPa 0,0 l/m 0,0 km/h N 360 10,4 C 0,0 km/h
15.10.2019 08:25 20,5 C 11,9 C 12,1 C 65 % 52 % 1007,3 hPa 0,0 l/m 0,0 km/h N 360 10,3 C 0,0 km/h
15.10.2019 08:20 20,5 C 11,9 C 12,1 C 65 % 52 % 1007,3 hPa 0,0 l/m 0,0 km/h N 360 10,3 C 0,0 km/h
15.10.2019 08:15 20,5 C 11,9 C 12,1 C 65 % 52 % 1007,6 hPa 0,0 l/m 0,0 km/h N 360 10,3 C 0,0 km/h
15.10.2019 08:10 20,5 C 11,7 C 12,1 C 65 % 51 % 1007,6 hPa 0,0 l/m 0,0 km/h N 360 10,1 C 0,0 km/h
15.10.2019 08:05 20,5 C 11,6 C 12,1 C 65 % 51 % 1007,6 hPa 0,0 l/m 0,0 km/h N 360 9,8 C 0,0 km/h
15.10.2019 08:00 20,5 C 11,7 C 12,1 C 65 % 51 % 1007,6 hPa 0,0 l/m 0,0 km/h N 360 10,1 C 0,0 km/h
15.10.2019 07:55 20,5 C 11,6 C 12,1 C 65 % 51 % 1007,9 hPa 0,0 l/m 0,0 km/h N 360 9,8 C 0,0 km/h
15.10.2019 07:50 20,5 C 11,6 C 12,1 C 65 % 51 % 1007,9 hPa 0,0 l/m 0,0 km/h N 360 9,8 C 0,0 km/h
15.10.2019 07:45 20,5 C 11,5 C 12,1 C 65 % 51 % 1007,9 hPa 0,0 l/m 0,0 km/h N 360 9,8 C 0,0 km/h
15.10.2019 07:40 20,5 C 11,6 C 12,1 C 65 % 51 % 1007,9 hPa 0,0 l/m 0,0 km/h N 360 9,8 C 0,0 km/h
15.10.2019 07:35 20,5 C 11,5 C 12,1 C 65 % 51 % 1008,3 hPa 0,0 l/m 0,0 km/h N 360 9,8 C 0,0 km/h
15.10.2019 07:30 20,5 C 11,5 C 12,1 C 65 % 51 % 1008,3 hPa 0,0 l/m 0,0 km/h N 360 9,8 C 0,0 km/h
15.10.2019 07:25 20,5 C 11,5 C 12,1 C 65 % 51 % 1008,3 hPa 0,0 l/m 0,0 km/h N 360 9,8 C 0,0 km/h
15.10.2019 07:20 20,5 C 11,5 C 12,1 C 65 % 51 % 1008,3 hPa 0,0 l/m 0,0 km/h N 360 9,8 C 0,0 km/h
15.10.2019 07:15 20,5 C 11,5 C 12,1 C 65 % 51 % 1008,4 hPa 0,0 l/m 0,0 km/h N 360 9,6 C 0,0 km/h
15.10.2019 07:10 20,5 C 11,5 C 12,5 C 65 % 51 % 1008,4 hPa 0,0 l/m 0,0 km/h N 360 9,6 C 0,0 km/h
15.10.2019 07:05 20,6 C 11,6 C 12,5 C 65 % 51 % 1008,4 hPa 0,0 l/m 0,0 km/h N 360 9,7 C 0,0 km/h
15.10.2019 07:00 20,5 C 11,6 C 12,5 C 65 % 51 % 1008,4 hPa 0,0 l/m 0,0 km/h N 360 9,7 C 0,0 km/h
15.10.2019 06:55 20,5 C 11,6 C 12,5 C 65 % 51 % 1008,6 hPa 0,0 l/m 0,0 km/h N 360 9,7 C 0,0 km/h
15.10.2019 06:50 20,5 C 11,9 C 12,5 C 65 % 52 % 1008,6 hPa 0,0 l/m 0,0 km/h N 360 10,0 C 0,0 km/h
15.10.2019 06:45 20,6 C 11,9 C 12,5 C 65 % 52 % 1008,6 hPa 0,0 l/m 0,0 km/h N 360 10,0 C 0,0 km/h
15.10.2019 06:40 20,6 C 11,9 C 12,5 C 65 % 52 % 1008,6 hPa 0,0 l/m 0,0 km/h N 360 10,0 C 0,0 km/h
15.10.2019 06:35 20,6 C 12,0 C 12,4 C 65 % 52 % 1008,8 hPa 0,0 l/m 0,0 km/h N 360 10,1 C 0,0 km/h
15.10.2019 06:30 20,6 C 12,0 C 12,5 C 65 % 52 % 1008,8 hPa 0,0 l/m 0,0 km/h N 360 10,1 C 0,0 km/h
15.10.2019 06:25 20,6 C 12,1 C 12,5 C 65 % 52 % 1008,8 hPa 0,0 l/m 0,0 km/h N 360 10,2 C 0,0 km/h
15.10.2019 06:20 20,6 C 12,1 C 12,5 C 65 % 52 % 1008,8 hPa 0,0 l/m 0,0 km/h N 360 10,2 C 0,0 km/h
15.10.2019 06:15 20,6 C 12,2 C 12,6 C 65 % 52 % 1008,8 hPa 0,0 l/m 0,0 km/h N 360 10,3 C 0,0 km/h
15.10.2019 06:10 20,6 C 12,3 C 12,7 C 65 % 52 % 1008,8 hPa 0,0 l/m 0,0 km/h N 360 10,4 C 0,0 km/h
15.10.2019 06:05 20,6 C 12,3 C 12,7 C 65 % 52 % 1008,8 hPa 0,0 l/m 0,0 km/h N 360 10,4 C 0,0 km/h
15.10.2019 06:00 20,6 C 12,3 C 12,7 C 65 % 52 % 1008,8 hPa 0,0 l/m 0,0 km/h N 360 10,2 C 0,0 km/h
15.10.2019 05:55 20,6 C 12,4 C 12,7 C 65 % 52 % 1008,9 hPa 0,0 l/m 0,0 km/h N 360 10,5 C 0,0 km/h
15.10.2019 05:50 20,6 C 12,4 C 12,8 C 65 % 52 % 1008,9 hPa 0,0 l/m 0,0 km/h N 360 10,5 C 0,0 km/h
15.10.2019 05:45 20,6 C 12,4 C 12,8 C 65 % 52 % 1008,9 hPa 0,0 l/m 0,0 km/h N 360 10,5 C 0,0 km/h
15.10.2019 05:40 20,6 C 12,5 C 12,8 C 65 % 53 % 1008,9 hPa 0,0 l/m 0,0 km/h N 360 10,6 C 0,0 km/h
15.10.2019 05:35 20,7 C 12,7 C 12,8 C 65 % 53 % 1009,1 hPa 0,0 l/m 0,0 km/h N 360 10,8 C 0,0 km/h
15.10.2019 05:30 20,7 C 12,7 C 12,8 C 65 % 53 % 1009,1 hPa 0,0 l/m 0,0 km/h N 360 10,8 C 0,0 km/h
15.10.2019 05:25 20,7 C 12,8 C 12,9 C 65 % 53 % 1009,1 hPa 0,0 l/m 0,0 km/h N 360 10,9 C 0,0 km/h
15.10.2019 05:20 20,7 C 12,9 C 12,9 C 65 % 53 % 1009,1 hPa 0,0 l/m 0,0 km/h N 360 11,0 C 0,0 km/h
15.10.2019 05:15 20,7 C 12,9 C 12,9 C 65 % 53 % 1009,5 hPa 0,0 l/m 0,0 km/h N 360 11,0 C 0,0 km/h
15.10.2019 05:10 20,7 C 12,9 C 12,9 C 65 % 53 % 1009,5 hPa 0,0 l/m 0,0 km/h N 360 11,0 C 0,0 km/h
15.10.2019 05:05 20,7 C 12,9 C 12,8 C 66 % 53 % 1009,5 hPa 0,0 l/m 0,0 km/h N 360 11,0 C 0,0 km/h
15.10.2019 05:00 20,7 C 12,9 C 12,9 C 66 % 53 % 1009,5 hPa 0,0 l/m 0,0 km/h N 360 11,0 C 0,0 km/h
15.10.2019 04:55 20,7 C 12,8 C 13,1 C 66 % 53 % 1009,6 hPa 0,0 l/m 0,0 km/h N 360 10,9 C 0,0 km/h
15.10.2019 04:50 20,7 C 12,8 C 13,1 C 66 % 53 % 1009,6 hPa 0,0 l/m 0,0 km/h N 360 10,9 C 0,0 km/h
15.10.2019 04:45 20,7 C 12,9 C 13,0 C 66 % 53 % 1009,6 hPa 0,0 l/m 0,0 km/h N 360 11,0 C 0,0 km/h
15.10.2019 04:40 20,7 C 12,9 C 13,1 C 66 % 53 % 1009,6 hPa 0,0 l/m 0,0 km/h N 360 11,0 C 0,0 km/h
15.10.2019 04:35 20,8 C 12,9 C 13,1 C 66 % 53 % 1009,6 hPa 0,0 l/m 0,0 km/h N 360 11,0 C 0,0 km/h
15.10.2019 04:30 20,8 C 12,9 C 13,1 C 66 % 53 % 1009,6 hPa 0,0 l/m 0,0 km/h N 360 11,0 C 0,0 km/h
15.10.2019 04:25 20,8 C 13,1 C 13,1 C 66 % 54 % 1009,6 hPa 0,0 l/m 0,0 km/h N 360 11,2 C 0,0 km/h
15.10.2019 04:20 20,8 C 13,1 C 13,1 C 66 % 54 % 1009,6 hPa 0,0 l/m 0,0 km/h N 360 11,2 C 0,0 km/h
15.10.2019 04:15 20,8 C 13,1 C 13,2 C 66 % 54 % 1010,2 hPa 0,0 l/m 0,0 km/h N 360 11,2 C 0,0 km/h
15.10.2019 04:10 20,8 C 13,1 C 13,2 C 66 % 54 % 1010,2 hPa 0,0 l/m 0,0 km/h N 360 11,2 C 0,0 km/h
15.10.2019 04:05 20,8 C 13,1 C 13,2 C 66 % 54 % 1010,2 hPa 0,0 l/m 0,0 km/h N 360 11,2 C 0,0 km/h
15.10.2019 04:00 20,8 C 13,1 C 13,2 C 66 % 54 % 1010,2 hPa 0,0 l/m 0,0 km/h N 360 11,2 C 0,0 km/h
15.10.2019 03:55 20,8 C 13,1 C 13,1 C 66 % 54 % 1010,4 hPa 0,0 l/m 0,0 km/h N 360 11,2 C 0,0 km/h
15.10.2019 03:50 20,8 C 13,1 C 13,1 C 66 % 54 % 1010,4 hPa 0,0 l/m 0,0 km/h N 360 11,2 C 0,0 km/h
15.10.2019 03:45 20,8 C 13,1 C 13,2 C 66 % 54 % 1010,4 hPa 0,0 l/m 0,0 km/h N 360 11,2 C 0,0 km/h
15.10.2019 03:40 20,8 C 13,0 C 13,2 C 66 % 53 % 1010,4 hPa 0,0 l/m 0,0 km/h N 360 10,9 C 0,0 km/h
15.10.2019 03:35 20,8 C 13,1 C 13,2 C 66 % 54 % 1010,4 hPa 0,0 l/m 0,0 km/h N 360 11,0 C 0,0 km/h
15.10.2019 03:30 20,8 C 13,1 C 13,3 C 66 % 54 % 1010,4 hPa 0,0 l/m 0,0 km/h N 360 11,0 C 0,0 km/h
15.10.2019 03:25 20,8 C 13,1 C 13,3 C 66 % 54 % 1010,4 hPa 0,0 l/m 0,0 km/h N 360 11,0 C 0,0 km/h
15.10.2019 03:20 20,8 C 13,1 C 13,3 C 66 % 54 % 1010,4 hPa 0,0 l/m 0,0 km/h N 360 11,0 C 0,0 km/h
15.10.2019 03:15 20,9 C 13,2 C 13,3 C 66 % 54 % 1010,6 hPa 0,0 l/m 0,0 km/h N 360 11,1 C 0,0 km/h
15.10.2019 03:10 20,9 C 13,2 C 13,3 C 66 % 54 % 1010,6 hPa 0,0 l/m 0,0 km/h N 360 11,1 C 0,0 km/h
15.10.2019 03:05 20,9 C 13,3 C 13,4 C 66 % 54 % 1010,6 hPa 0,0 l/m 0,0 km/h N 360 11,2 C 0,0 km/h
15.10.2019 03:00 20,9 C 13,5 C 13,4 C 66 % 54 % 1010,6 hPa 0,0 l/m 0,0 km/h N 360 11,4 C 0,0 km/h
15.10.2019 02:55 20,9 C 13,5 C 13,5 C 66 % 54 % 1010,7 hPa 0,0 l/m 0,0 km/h N 360 11,4 C 0,0 km/h
15.10.2019 02:50 20,9 C 13,5 C 13,5 C 66 % 54 % 1010,7 hPa 0,0 l/m 0,0 km/h N 360 11,4 C 0,0 km/h
15.10.2019 02:45 20,9 C 13,5 C 13,6 C 66 % 54 % 1010,7 hPa 0,0 l/m 0,0 km/h N 360 11,4 C 0,0 km/h
15.10.2019 02:40 21,0 C 13,6 C 13,6 C 66 % 54 % 1010,7 hPa 0,0 l/m 0,0 km/h N 360 11,5 C 0,0 km/h
15.10.2019 02:35 21,0 C 13,6 C 13,6 C 66 % 54 % 1010,9 hPa 0,0 l/m 0,0 km/h N 360 11,5 C 0,0 km/h
15.10.2019 02:30 21,0 C 13,6 C 13,6 C 66 % 54 % 1010,9 hPa 0,0 l/m 0,0 km/h N 360 11,5 C 0,0 km/h
15.10.2019 02:25 21,0 C 13,6 C 13,6 C 66 % 54 % 1010,9 hPa 0,0 l/m 0,0 km/h N 360 11,5 C 0,0 km/h
15.10.2019 02:20 21,0 C 13,6 C 13,6 C 66 % 54 % 1010,9 hPa 0,0 l/m 0,0 km/h N 360 11,5 C 0,0 km/h
15.10.2019 02:15 21,0 C 13,5 C 13,6 C 66 % 54 % 1011,1 hPa 0,0 l/m 0,0 km/h N 360 11,4 C 0,0 km/h
15.10.2019 02:10 21,0 C 13,5 C 13,6 C 66 % 54 % 1011,1 hPa 0,0 l/m 0,0 km/h N 360 11,4 C 0,0 km/h
15.10.2019 02:05 21,0 C 13,5 C 13,7 C 66 % 54 % 1011,1 hPa 0,0 l/m 0,0 km/h N 360 11,4 C 0,0 km/h
15.10.2019 02:00 21,0 C 13,5 C 13,6 C 66 % 54 % 1011,1 hPa 0,0 l/m 0,0 km/h N 360 11,4 C 0,0 km/h
15.10.2019 01:55 21,1 C 13,6 C 13,7 C 66 % 54 % 1011,2 hPa 0,0 l/m 0,0 km/h N 360 11,5 C 0,0 km/h
15.10.2019 01:50 21,1 C 13,6 C 13,6 C 66 % 54 % 1011,2 hPa 0,0 l/m 0,0 km/h N 360 11,5 C 0,0 km/h
15.10.2019 01:45 21,1 C 13,5 C 13,6 C 66 % 54 % 1011,2 hPa 0,0 l/m 0,0 km/h N 360 11,4 C 0,0 km/h
15.10.2019 01:40 21,1 C 13,5 C 13,6 C 66 % 54 % 1011,2 hPa 0,0 l/m 0,0 km/h N 360 11,4 C 0,0 km/h
15.10.2019 01:35 21,2 C 13,4 C 13,6 C 66 % 54 % 1011,4 hPa 0,0 l/m 0,0 km/h N 360 11,3 C 0,0 km/h
15.10.2019 01:30 21,2 C 13,5 C 13,5 C 66 % 54 % 1011,4 hPa 0,0 l/m 0,0 km/h N 360 11,4 C 0,0 km/h
15.10.2019 01:25 21,2 C 13,4 C 13,5 C 66 % 54 % 1011,4 hPa 0,0 l/m 0,0 km/h N 360 11,1 C 0,0 km/h
15.10.2019 01:20 21,2 C 13,3 C 13,5 C 66 % 54 % 1011,4 hPa 0,0 l/m 0,0 km/h N 360 11,0 C 0,0 km/h
15.10.2019 01:15 21,2 C 13,3 C 13,5 C 66 % 54 % 1011,4 hPa 0,0 l/m 0,0 km/h N 360 11,0 C 0,0 km/h
15.10.2019 01:10 21,2 C 13,4 C 13,5 C 66 % 54 % 1011,4 hPa 0,0 l/m 0,0 km/h N 360 11,1 C 0,0 km/h
15.10.2019 01:05 21,3 C 13,5 C 13,6 C 66 % 54 % 1011,4 hPa 0,0 l/m 0,0 km/h N 360 11,2 C 0,0 km/h
15.10.2019 01:00 21,3 C 13,5 C 13,6 C 66 % 54 % 1011,4 hPa 0,0 l/m 0,0 km/h N 360 11,2 C 0,0 km/h
15.10.2019 00:55 21,2 C 13,5 C 13,7 C 66 % 54 % 1011,4 hPa 0,0 l/m 0,0 km/h N 360 11,2 C 0,0 km/h
15.10.2019 00:50 21,4 C 13,5 C 13,6 C 66 % 54 % 1011,4 hPa 0,0 l/m 0,0 km/h N 360 11,0 C 0,0 km/h
15.10.2019 00:45 21,4 C 13,5 C 13,7 C 66 % 54 % 1011,4 hPa 0,0 l/m 0,0 km/h N 360 11,0 C 0,0 km/h
15.10.2019 00:40 21,4 C 13,6 C 13,7 C 66 % 54 % 1011,4 hPa 0,0 l/m 0,0 km/h N 360 11,1 C 0,0 km/h
15.10.2019 00:35 21,4 C 13,6 C 13,7 C 66 % 54 % 1011,5 hPa 0,0 l/m 0,0 km/h N 360 11,3 C 0,0 km/h
15.10.2019 00:30 21,5 C 13,7 C 13,7 C 66 % 55 % 1011,5 hPa 0,0 l/m 0,0 km/h N 360 11,2 C 0,0 km/h
15.10.2019 00:25 21,6 C 13,7 C 13,7 C 66 % 55 % 1011,5 hPa 0,0 l/m 0,0 km/h N 360 11,2 C 0,0 km/h
15.10.2019 00:20 21,6 C 13,8 C 13,9 C 66 % 55 % 1011,5 hPa 0,0 l/m 0,0 km/h N 360 11,1 C 0,0 km/h
15.10.2019 00:15 21,6 C 13,8 C 14,0 C 66 % 55 % 1011,9 hPa 0,0 l/m 0,0 km/h N 360 11,1 C 0,0 km/h
15.10.2019 00:10 21,7 C 13,9 C 14,3 C 66 % 55 % 1011,9 hPa 0,0 l/m 0,0 km/h N 360 11,2 C 0,0 km/h
15.10.2019 00:05 21,8 C 14,0 C 14,3 C 66 % 55 % 1011,9 hPa 0,0 l/m 0,0 km/h N 360 11,3 C 0,0 km/h
15.10.2019 00:00 21,9 C 14,1 C 14,3 C 66 % 55 % 1011,9 hPa 0,0 l/m 0,0 km/h N 360 11,4 C 0,0 km/h
_ Min-Zeit 06:50 07:10 07:15 05:10 - 14:05 - 00:00 - - 07:10 00:00
Minimum _ 20,5 C 11,5 C 12,1 C 65 % - 1006,9 hPa - 0,0 km/h - - 9,6 C 0,0 km/h
_ Max-Zeit 00:00 13:40 18:05 10:55 13:40 23:25 23:05 00:00 - - 13:00 00:00
Maximum _ 21,9 C 19,5 C 15,3 C 69 % 65 % 1012,3 hPa 0,9 l/m 0,0 km/h
N
- - 15,0 C 0,0 km/h
N
Durchschnitt _ 20,9 C 14,7 C 13,0 C 67 % #40 min. 1009,0 hPa #8,8 l/m 0,0 km/h N - 12,1 C 0,0 km/h